This demonstration page uses our WeatherBlox Daily Observations layout. Learn more.

Left ArrowRight Arrow

Hourly Observations for May 3, 2021

Temp ( °F °C ) Dew Point ( °F °C ) Humidity (%) Winds ( mph kmh ) Pressure ( in mb ) Visibility ( mi km ) Precip ( " mm )
12:28 am 00:28 Cloudy 72 22.2 29 -1.7 20 20 SW 9 15 29.43 997 N/A 0.00 0.00
12:42 am 00:42 Cloudy 72 22.2 29 -1.7 20 20 WSW 10 17 29.43 997 N/A 0.00 0.00
12:50 am 00:50 Cloudy 72 22 30 -1 22 22 WSW 9 15 29.43 997 N/A 0.00 0.00
12:53 am 00:53 Cloudy 71 21.7 30 -1.1 22 22 WSW 9 15 29.41 996 N/A 0.00 0.00
1:53 am 01:53 Cloudy 66 18.9 32 0 28 28 SSW 8 13 29.42 996 N/A 0.00 0.00
2:53 am 02:53 Mostly Clear 68 20 30 -1.1 24 24 WSW 9 15 29.42 996 N/A 0.00 0.00
3:53 am 03:53 Clear 66 18.9 29 -1.7 25 25 WSW 9 15 29.43 997 N/A 0.00 0.00
4:53 am 04:53 Clear 62 16.7 32 0 32 32 SW 8 13 29.44 997 N/A 0.00 0.00
5:53 am 05:53 Clear 64 17.8 29 -1.7 27 27 WSW 7 11 29.47 998 N/A 0.00 0.00
6:53 am 06:53 Clear 61 16.1 30 -1.1 31 31 W 10 17 29.51 999 N/A 0.00 0.00
7:53 am 07:53 Sunny 66 18.9 30 -1.1 26 26 W 12 19 29.52 1000 N/A 0.00 0.00
8:53 am 08:53 Sunny 74 23.3 28 -2.2 18 18 NW 14 22 29.54 1000 N/A 0.00 0.00
9:53 am 09:53 Sunny 73 22.8 41 5 32 32 N 12 19 29.56 1001 N/A 0.00 0.00
10:53 am 10:53 undefined N/A N/A N/A undefined N/A N/A N/A 0.00 0.00
11:53 am 11:53 undefined N/A N/A N/A undefined N/A N/A N/A 0.00 0.00
12:53 pm 12:53 undefined N/A N/A N/A undefined N/A N/A N/A 0.00 0.00
1:44 pm 13:44 Hazy 84 28.9 29 -1.7 13 13 W 16 26 29.49 998 2 3 0.00 0.00
1:51 pm 13:51 Sunny 84 29 28 -2 13 13 WNW 15 24 29.48 998 N/A 0.00 0.00
1:53 pm 13:53 Sunny 84 28.9 28 -2.2 13 13 WNW 14 22 29.55 1001 N/A 0.00 0.00
2:53 pm 14:53 Sunny 87 30.6 27 -2.8 11 11 W 18 30 29.52 1000 10 16 0.00 0.00
3:53 pm 15:53 Sunny 86 30 22 -5.6 9 9 WNW 16 26 29.52 1000 10 16 0.00 0.00
4:53 pm 16:53 Sunny 88 31.1 20 -6.7 8 8 W 20 31 29.51 999 10 16 0.00 0.00
5:53 pm 17:53 Sunny 87 30.6 20 -6.7 8 8 W 28 44 29.51 999 10 16 0.00 0.00
6:53 pm 18:53 Sunny 86 30 17 -8.3 8 8 W 14 22 29.53 1000 10 16 0.00 0.00
7:53 pm 19:53 Sunny 84 28.9 17 -8.3 8 8 WNW 15 24 29.55 1001 10 16 0.00 0.00
8:53 pm 20:53 Clear 71 21.7 51 10.6 49 49 NNE 35 56 29.62 1003 8 13 0.00 0.00
9:00 pm 21:00 Clear 70 21.1 50 10 49 49 NNE 37 59 29.64 1004 9 14 0.00 0.00
9:53 pm 21:53 Clear 65 18.3 47 8.3 52 52 NNE 26 43 29.71 1006 10 16 0.00 0.00
10:53 pm 22:53 Clear 61 16.1 46 7.8 58 58 NNE 25 41 29.76 1008 10 16 0.00 0.00
11:53 pm 23:53 Clear 57 13.9 43 6.1 60 60 N 21 33 29.87 1012 10 16 0.00 0.00

Powered by AerisWeather